FLOCK 3K-9 (43906 NORAD) Tracking and Keplerian Element Data

This shows tracking and keplerian element data for the satellite.

Feedback or suggestion? Click here.




ElementValue
Catalog43906
NameFLOCK 3K-9
Epoch Orbit459
Epoch Day26.22314263
Epoch Year2019
RAAN295.3175
Inclination97.2994
Eccentricity0.0023464
Argument of Perigee134.9527
Mean Anonmoly225.3619
Mean Motion15.23871866
Decay Rate1.776E-05
L11 43906U 18111AG 19026.22314263 .00001776 00000-0 75971-4 0 9999
L22 43906 97.2994 295.3175 0023464 134.9527 225.3619 15.23871866 4599

Live tracking and technical data element details for FLOCK 3K-9 (NORAD 43906). FLOCK 3K-9 can be tracked NOW for your location showing map with azimuth and elevation plus other details from your city location.

Track the satellite on the map from your city or location and see movement details for azimuth, elevation, latitude, longitude, range, height, and movement on the map or in text.







IsCatalogInMostPopularTable: catalog: 43906, numindb: 68
Update: records affected: 1



GetName: 43906 FLOCK 3K-9

Hit Count: updated at: Thu, 23 May 2019 15:28:04 GMT